Regional Weather Roundup
Issued by NWS

Home | Current Version | Previous Version | Graphics & Text | Print | Product List | Glossary On
Versions: 1 2 3 4 5 6 7 8 9 10 11 12 13 14 15 16 17 18 19 20 21 22 23 24 25 26 27 28 29 30 31 32 33 34 35 36 37 38 39 40 41 42 43 44 45 46 47 48 49 50
000
ASUS44 KMEG 271500
RWRTN
TENNESSEE HOURLY STATE WEATHER ROUNDUP
NATIONAL WEATHER SERVICE MEMPHIS TN
1000 AM CDT WED MAY 27 2015

TNZ002-004-019-021-049-052-054-088>092-271600-
WEST TENNESSEE

CITY           SKY/WX    TMP DP  RH WIND       PRES   REMARKS
MEMPHIS INTL   TSTM      73  65  75 S10       30.16R
NWS MEMPHIS      N/A     77 N/A N/A MISG        N/A
JACKSON        CLOUDY    76  67  73 S8        30.16S
DYERSBURG      CLOUDY    77  59  53 SW5       30.14F
PARIS          MOSUNNY   77  68  73 SW10      30.15F
LEXINGTON      PTSUNNY   73  68  83 VRB3      30.17S
$$

TNZ008-025-027-028-033-062-065-066-271600-
NORTH MIDDLE TENNESSEE

CITY           SKY/WX    TMP DP  RH WIND       PRES   REMARKS
NASHVILLE      CLOUDY    77  68  73 SW7       30.19F
CLARKSVILLE    MOSUNNY   76  69  79 S13       30.16R
COOKEVILLE     PTSUNNY   75  68  78 VRB5      30.22R
CROSSVILLE     CLOUDY    71  63  75 SW5       30.26S
$$

TNZ061-075-076-078-094-096-097-271600-
SOUTH MIDDLE TENNESSEE

CITY           SKY/WX    TMP DP  RH WIND       PRES   REMARKS
FAYETTEVILLE   PTSUNNY  N/A N/A N/A MISG      30.23R
TULLAHOMA      PTSUNNY   73  66  78 CALM      30.23S
WINCHESTER     PTSUNNY   75  66  73 CALM      30.23R
MCMINNVILLE    PTSUNNY   75  66  73 VRB6      30.23R
COLUMBIA       PTSUNNY   81  72  74 SW12      30.19R
SHELBYVILLE    CLOUDY    75  70  83 S7        30.23R
$$

TNZ017-018-042-046-047-271600-
NORTHEAST TENNESSEE

CITY           SKY/WX    TMP DP  RH WIND       PRES   REMARKS
TRI CITIES     PTSUNNY   75  61  61 W7        30.26S
ELIZABETHTON   MOSUNNY   73  61  64 SW6       30.27R
$$

TNZ012-013-036-069-073-074-271600-
CENTRAL EAST TENNESSEE

CITY           SKY/WX    TMP DP  RH WIND       PRES   REMARKS
KNOXVILLE      NOT AVBL
OAK RIDGE      CLOUDY    73  64  73 S6        30.25S
GATLINBURG     CLOUDY    73  61  64 VRB3      30.24S
$$

TNZ083-085-099-271600-
SOUTHEAST TENNESSEE

CITY           SKY/WX    TMP DP  RH WIND       PRES   REMARKS
CHATTANOOGA    PTSUNNY   72  66  81 S6        30.24R
$$

SKY/WX REPORTED AS FAIR MEANS FEW OR NO CLOUDS BELOW
12 THOUSAND FEET.



USA.gov is the U.S. government's official web portal to all federal, state and local government web resources and services.